sat.trackr.live / text

‹ back to catalog

STARLINK-34201

NORAD 64077 · 2025-107P

PAYLOAD ACTIVE UNKNOWN

§ Identity

Operator
Country
US
Launch date
2025-05-21
Launch site
AFETR
Launch vehicle
Mass (kg)
RCS (m²)

Purposes: comms

External: N2YO · Heavens-Above · Gunter

§ Orbital elements

Epoch: 2026-09-20T04:35:19.959936Z

Period
94.27 min
Inclination
43.0004°
Eccentricity
0.0002354
Mean motion
15.27560949 rev/d
Perigee alt
481.5 km
Apogee alt
484.7 km
Semi-major
6,861.2 km
B*
3.3827e-4
RAAN
183.3902°
Arg perigee
248.0365°
Mean anomaly
112.0236°
Rev number
7,477

§ Raw data

STARLINK-342011 64077U 25107P   26263.19120324  .00009052  00000+0  33827-3 0  99912 64077  43.0004 183.3902 0002354 248.0365 112.0236 15.27560949 74773

JSON: /api/v1/satellites/64077 · /tle

For live sub-satellite position, see the globe view (requires WebGL).

§ Visibility from observer

Set your observer location to see the next 7 days of passes ≥ 10°. The values pass through the URL so the page stays shareable.

No JS? Fill the form by hand. The geolocation button needs JavaScript.